Precipitable_Water
1.33 1.22 1.08 1.22 1.18 1.21 1.25 1.28 1.44 1.44 1.47 1.44 1.47 1.44 1.67 1.56 1.56 1.53 1.33 1.27 1.22 1.28
1.15 1.21 1.01 1.12 1.22 1.24 1.24 1.31 1.37 1.43 1.41 1.41 1.43 1.40 1.45 1.55 1.48 1.51 1.47 1.32 1.22 1.20
1.05 1.09 1.10 1.00 1.10 1.15 1.26 1.20 1.42 1.40 1.41 1.44 1.43 1.43 1.44 1.46 1.45 1.50 1.51 1.44 1.31 1.14
1.12 1.10 1.09 1.14 1.11 1.19 1.22 1.39 1.27 1.53 1.43 1.40 1.40 1.36 1.34 1.37 1.41 1.38 1.45 1.48 1.40 1.29
1.14 1.19 1.14 1.09 1.13 1.18 1.26 1.26 1.41 1.43 1.48 1.43 1.35 1.34 1.30 1.19 1.27 1.37 1.37 1.40 1.40 1.37
1.28 1.25 1.24 1.23 1.15 1.25 1.25 1.34 1.31 1.41 1.41 1.40 1.36 1.30 1.32 1.29 1.22 1.23 1.43 1.46 1.44 1.40
1.49 1.44 1.43 1.40 1.36 1.28 1.34 1.28 1.32 1.34 1.43 1.48 1.43 1.39 1.32 1.32 1.26 1.20 1.23 1.43 1.53 1.48
1.66 1.67 1.59 1.57 1.54 1.54 1.44 1.38 1.40 1.37 1.41 1.49 1.53 1.51 1.44 1.32 1.27 1.24 1.19 1.22 1.41 1.49
1.59 1.66 1.74 1.73 1.67 1.64 1.59 1.56 1.55 1.45 1.46 1.47 1.55 1.61 1.58 1.52 1.34 1.27 1.23 1.20 1.26 1.41
1.47 1.51 1.62 1.74 1.76 1.65 1.63 1.65 1.58 1.60 1.58 1.49 1.53 1.57 1.61 1.62 1.58 1.49 1.36 1.27 1.25 1.26
1.51 1.49 1.60 1.62 1.69 1.75 1.73 1.63 1.64 1.65 1.66 1.64 1.62 1.62 1.61 1.64 1.66 1.62 1.57 1.49 1.38 1.26
1.41 1.45 1.53 1.55 1.53 1.69 1.79 1.76 1.73 1.71 1.72 1.68 1.67 1.77 1.73 1.74 1.73 1.65 1.59 1.62 1.57 1.50
1.25 1.29 1.32 1.51 1.57 1.62 1.75 1.79 1.82 1.68 1.71 1.76 1.73 1.85 1.84 1.86 1.86 1.68 1.62 1.71 1.68 1.63
1.26 1.24 1.34 1.49 1.68 1.67 1.70 1.77 1.74 1.71 1.79 1.78 1.82 1.85 1.90 1.93 1.91 1.76 1.71 1.66 1.66 1.76
Wind_Speed
22 21 20 17 16 16 14 13 13 12 12 11 11 11 10 9 8 6 6 4 4 2
25 22 21 20 19 16 17 14 14 15 14 13 12 13 13 12 11 9 9 8 6 6
25 24 22 22 20 19 17 18 14 16 15 15 14 14 15 15 15 13 12 11 10 8
24 23 22 21 21 19 20 16 18 15 16 16 15 16 16 17 17 17 16 14 13 12
24 23 23 23 21 20 19 20 18 18 17 17 17 17 17 18 20 19 19 18 17 16
23 23 23 22 22 21 20 19 19 18 17 16 16 17 18 19 20 22 21 21 21 19
24 24 23 22 22 23 22 22 21 20 19 18 17 16 17 19 20 21 23 23 23 23
26 25 25 25 24 23 23 24 22 22 21 19 18 17 17 18 20 21 22 24 25 25
26 27 27 27 27 26 25 24 23 22 22 21 20 20 19 18 18 20 22 23 25 27
25 25 27 28 29 28 27 26 26 25 24 23 23 23 22 22 21 20 21 24 25 27
26 25 26 27 29 29 29 29 28 27 27 26 26 25 26 26 26 25 25 25 26 27
27 27 27 28 28 29 29 30 30 30 28 29 28 28 28 29 30 31 30 30 29 30
30 29 28 28 29 29 29 30 29 30 31 30 30 30 30 32 33 34 34 34 34 34
31 32 30 28 28 29 30 30 31 30 31 31 31 31 31 32 34 36 37 37 37 37
Wind_Direction
214 215 218 221 222 226 229 232 234 235 236 239 239 235 231 229 226 228 224 223 227 265
216 219 222 224 227 230 232 237 238 237 238 240 242 239 235 232 231 233 232 235 241 256
219 222 224 226 229 232 234 236 241 238 238 240 241 240 237 236 236 236 238 241 245 256
218 220 223 227 229 232 233 236 237 240 238 240 243 242 241 239 238 240 241 244 248 251
219 223 224 226 228 230 233 235 239 240 241 242 244 245 244 243 242 242 242 244 248 251
221 222 224 226 227 230 232 235 237 239 240 242 246 248 248 248 246 246 248 246 247 251
223 224 227 229 231 232 236 238 240 241 243 246 249 252 252 250 250 249 249 250 249 251
227 230 231 233 235 237 238 241 242 243 243 245 247 251 253 253 251 252 252 252 252 253
230 233 235 236 237 239 240 241 241 240 242 245 248 251 252 254 257 256 256 256 256 255
231 236 237 237 239 240 240 240 241 242 244 247 250 252 252 253 257 260 262 262 261 259
234 238 240 239 240 240 240 241 241 244 246 249 252 254 255 255 256 261 263 266 264 263
237 240 241 241 241 241 241 242 244 245 247 250 255 257 257 258 258 261 264 265 266 265
240 242 244 244 243 242 243 244 245 247 249 253 257 259 260 260 261 263 265 266 267 266
242 242 243 244 243 243 243 245 247 250 252 256 259 261 262 262 263 264 266 266 268 269